STARLINK-35885, 66890

Orbit data source: Space-Track

STARLINK-35885, 66890 is a payload satellite owned by SpaceX/Seattle (US) in LEO that was launched on Thu, 04 Dec 2025 UTC via an FALCON 9 launch vehicle from the Air Force Western Test Range (AFWTR). Payload-class satellites include a variety of spacecraft equipped with specific instruments for various scientific and technological missions. These include communications satellites like Starlink; space stations such as the ISS; scientific satellites like the Hubble; Earth observation satellites from companies like Planet Labs, Umbra, and HawkEye 360; GPS; miniature CubeSats for education and research; and military/defense satellites.

Loading next visibility...
Identifier
66890, 2025-283N
Orbit
LEO
Country
Flag of USUS
Related business
Manufacturer
SpaceX/Seattle
Mission
Operational Commercial Communications
Bus & Motor
STARLINK V2MO, Unknown motor
Mass
575 kg wet, ~530 kg dry
Launch date (UTC)
2025-12-04 (7 months ago)
Launch vehicle
FALCON 9
Launch site
Air Force Western Test Range (AFWTR)
Object type
Payload
Rocket body
Debris
Shape & HBR
Box + 2 Pan, 17.7 m
Radar Cross Section
36.964 m², Large (>1 m²)

Expand to show TLE details & history
Last TLE update: 10 hours ago

TLE from 10 hours ago
0 STARLINK-35885
1 66890U 25283N   26171.41417273  .00015244  00000-0  46142-3 0  9991
2 66890  53.1596 266.1832 0000949  61.2310 298.8788 15.34396057 31583
Epoch: 2026-06-20T09:56Z
TLE epoch observation values (Epoch: 2026-06-20T09:56:24.523Z)
Latitude
-0.00003°
Longitude
-151.54814°
Altitude
463.303 km
Speed
7.636 km/s
True Right ascension
17h 44m 43s
True Declination
0° 00' 00"
Sunlit
Object was in full shadow at epoch
Visualization orbit readout
Latitude
Unknown
Longitude
Unknown
Altitude
Unknown
Speed
Unknown
Apparent Right ascension
Unknown
Apparent Declination
Unknown
Sunlit
N/A
Visualization observer readout
Local Sidereal Time
07:13:51
Azimuth
Unknown
Elevation
Unknown
Doppler factor
Unknown
Orbital elements
Apogee altitude
463.621 km
Perigee altitude
462.323 km
Semi-major axis
6,841.109 km
Eccentricity
0.00009
Inclination
53.1596°
RAAN
266.1832°
Arg. of periapsis
61.231°
True anomaly
298.86928°
Mean anomaly
298.8788°
Eccentric anomaly
298.87404°
Mean motion
3.83578 °/min
Orbital period
93.85 mins
BSTAR
0.00046142
Loading maneuver chart data...
Computing Atmospheric mass density...
Loading historical data...
Loading historical data...
Loading historical data...
Loading historical data...
Loading historical data...
Loading historical data...
Loading historical data...

Documentation

Showing up to 5 results
|